W2JV-2 Weather Reports


Display with metric or nautical units.
time (UTC)temp
F
wind
direction
speed
MPH
gust
MPH
rain 1hr
in
rain 24hr
in
rain mn
in
humidity
%
barometer
mb
20240612142003 72 2 0.0 2.0 0.00 0.00 0.00 47 1017.1
20240612141503 72 50 2.0 5.0 0.00 0.00 0.00 49 1017.1
20240612141002 72 30 0.0 3.0 0.00 0.00 0.00 50 1017.1
20240612140502 72 257 0.0 1.0 0.00 0.00 0.00 50 1017.1
20240612140002 71 279 0.0 2.0 0.00 0.00 0.00 54 1017.1
20240612135503 71 317 0.0 2.0 0.00 0.00 0.00 53 1017.0
20240612135003 70 357 1.0 2.0 0.00 0.00 0.00 51 1017.1
20240612134502 70 47 0.0 2.0 0.00 0.00 0.00 53 1017.1
20240612134002 69 54 1.0 3.0 0.00 0.00 0.00 54 1017.1
20240612133503 68 44 1.0 3.0 0.00 0.00 0.00 55 1017.2
20240612133003 68 26 0.0 0.0 0.00 0.00 0.00 57 1017.2
20240612132502 67 256 0.0 0.0 0.00 0.00 0.00 59 1017.2
20240612132002 66 4 0.0 3.0 0.00 0.00 0.00 58 1017.2
20240612131503 66 303 2.0 3.0 0.00 0.00 0.00 58 1017.2
20240612130502 66 14 1.0 2.0 0.00 0.00 0.00 59 1017.2
20240612130002 65 15 0.0 1.0 0.00 0.00 0.00 60 1017.2
20240612125503 65 311 1.0 3.0 0.00 0.00 0.00 60 1017.1
20240612125003 65 42 0.0 3.0 0.00 0.00 0.00 60 1017.0
20240612124502 64 311 1.0 3.0 0.00 0.00 0.00 60 1017.0
20240612124002 64 320 1.0 2.0 0.00 0.00 0.00 61 1016.9
20240612123502 64 341 0.0 2.0 0.00 0.00 0.00 61 1016.9
20240612123003 64 8 1.0 2.0 0.00 0.00 0.00 61 1016.9
20240612122503 64 355 0.0 1.0 0.00 0.00 0.00 62 1016.9
20240612122002 63 331 1.0 2.0 0.00 0.00 0.00 62 1016.9
20240612121502 63 356 1.0 1.0 0.00 0.00 0.00 62 1017.0
20240612121003 63 0 1.0 2.0 0.00 0.00 0.00 63 1016.9
20240612120503 63 325 0.0 1.0 0.00 0.00 0.00 64 1017.0
20240612120002 62 352 1.0 2.0 0.00 0.00 0.00 64 1017.1
20240612115504 62 332 0.0 2.0 0.00 0.00 0.00 65 1017.0
20240612115002 62 323 1.0 1.0 0.00 0.00 0.00 66 1017.0
20240612114503 62 358 0.0 2.0 0.00 0.00 0.00 66 1017.0
20240612114003 62 353 1.0 2.0 0.00 0.00 0.00 66 1016.9
20240612113002 62 349 0.0 0.0 0.00 0.00 0.00 68 1016.9
20240612112502 61 350 0.0 0.0 0.00 0.00 0.00 68 1017.0
20240612112003 61 349 0.0 0.0 0.00 0.00 0.00 68 1016.9
20240612111503 61 326 0.0 0.0 0.00 0.00 0.00 68 1016.9
20240612111002 61 335 0.0 0.0 0.00 0.00 0.00 69 1016.8
20240612110502 61 346 0.0 0.0 0.00 0.00 0.00 68 1016.9
20240612110002 61 346 0.0 0.0 0.00 0.00 0.00 68 1016.8
20240612105503 61 346 0.0 0.0 0.00 0.00 0.00 68 1016.8
20240612105003 61 346 0.0 0.0 0.00 0.00 0.00 68 1016.8
20240612104502 61 346 0.0 0.0 0.00 0.00 0.00 68 1016.7
20240612104002 61 345 0.0 0.0 0.00 0.00 0.00 67 1016.7
20240612103502 61 345 0.0 0.0 0.00 0.00 0.00 68 1016.8
20240612103003 61 346 0.0 0.0 0.00 0.00 0.00 67 1016.7
20240612102502 61 346 0.0 0.0 0.00 0.00 0.00 67 1016.8
20240612102002 61 346 0.0 0.0 0.00 0.00 0.00 67 1016.7
20240612101503 61 346 0.0 1.0 0.00 0.00 0.00 67 1016.7
20240612101003 61 346 1.0 1.0 0.00 0.00 0.00 67 1016.7
20240612100503 61 346 1.0 1.0 0.00 0.00 0.00 66 1016.7
20240612095502 61 345 1.0 2.0 0.00 0.00 0.00 66 1016.5
20240612095002 61 346 1.0 2.0 0.00 0.00 0.00 66 1016.5
20240612094503 61 346 0.0 1.0 0.00 0.00 0.00 66 1016.4
20240612094003 61 346 0.0 1.0 0.00 0.00 0.00 66 1016.4
20240612093503 61 346 1.0 1.0 0.00 0.00 0.00 66 1016.4
20240612093003 61 346 1.0 1.0 0.00 0.00 0.00 66 1016.4
20240612092502 61 346 0.0 1.0 0.00 0.00 0.00 66 1016.3
20240612091502 61 348 0.0 1.0 0.00 0.00 0.00 67 1016.2
20240612090503 61 296 0.0 0.0 0.00 0.00 0.00 67 1016.3
20240612090003 61 296 0.0 0.0 0.00 0.00 0.00 67 1016.3
20240612085503 61 296 0.0 0.0 0.00 0.00 0.00 67 1016.3
20240612084502 61 296 0.0 0.0 0.00 0.00 0.00 67 1016.2
20240612084002 61 296 0.0 0.0 0.00 0.00 0.00 67 1016.1
20240612083503 61 296 0.0 0.0 0.00 0.00 0.00 66 1016.1
20240612083003 61 296 0.0 0.0 0.00 0.00 0.00 66 1016.2
20240612082503 61 296 0.0 0.0 0.00 0.00 0.00 66 1016.1
20240612082002 61 296 0.0 0.0 0.00 0.00 0.00 66 1016.1
20240612081502 61 296 0.0 0.0 0.00 0.00 0.00 66 1016.0
20240612081003 62 296 0.0 0.0 0.00 0.00 0.00 66 1015.9
20240612080003 62 296 0.0 0.0 0.00 0.00 0.00 66 1015.9
20240612075502 62 296 0.0 0.0 0.00 0.00 0.00 66 1015.8
20240612075002 62 296 0.0 0.0 0.00 0.00 0.00 66 1015.8
20240612074503 62 296 0.0 0.0 0.00 0.00 0.00 65 1015.8
20240612074003 62 296 0.0 0.0 0.00 0.00 0.00 65 1015.8
20240612073503 62 296 0.0 0.0 0.00 0.00 0.00 65 1015.8
20240612073003 63 296 0.0 0.0 0.00 0.00 0.00 65 1015.8
20240612072503 63 296 0.0 0.0 0.00 0.00 0.00 65 1015.9
20240612071503 63 296 0.0 0.0 0.00 0.00 0.00 65 1016.0
20240612071003 63 296 0.0 0.0 0.00 0.00 0.00 65 1016.0
20240612070502 63 296 0.0 0.0 0.00 0.00 0.00 65 1015.9
20240612065502 63 296 0.0 0.0 0.00 0.00 0.00 63 1015.8
20240612065003 64 296 0.0 0.0 0.00 0.00 0.00 63 1015.8
20240612064502 64 296 0.0 0.0 0.00 0.00 0.00 63 1015.8
20240612064003 64 296 0.0 0.0 0.00 0.00 0.00 62 1015.8
20240612063502 64 296 0.0 0.0 0.00 0.00 0.00 62 1015.7
20240612063003 64 296 0.0 0.0 0.00 0.00 0.00 62 1015.7
20240612062503 64 296 0.0 0.0 0.00 0.00 0.00 62 1015.8
20240612062003 64 296 0.0 0.0 0.00 0.00 0.00 62 1015.8
20240612061502 65 296 0.0 0.0 0.00 0.00 0.00 61 1015.9
20240612061002 65 296 0.0 0.0 0.00 0.00 0.00 62 1015.8
20240612060502 65 296 0.0 0.0 0.00 0.00 0.00 62 1015.8
20240612055502 65 297 0.0 0.0 0.00 0.00 0.00 62 1015.9
20240612054503 65 297 0.0 0.0 0.00 0.00 0.00 63 1015.9
20240612054003 65 297 0.0 0.0 0.00 0.00 0.00 63 1015.9
20240612053503 65 297 0.0 0.0 0.00 0.00 0.00 62 1015.9
20240612053002 65 297 0.0 0.0 0.00 0.00 0.00 63 1015.9
20240612052502 65 297 0.0 0.0 0.00 0.00 0.00 62 1015.9
20240612052003 65 297 0.0 0.0 0.00 0.00 0.00 62 1015.9
20240612051503 65 297 0.0 0.0 0.00 0.00 0.00 62 1015.9
20240612051002 65 296 0.0 0.0 0.00 0.00 0.00 62 1015.9
20240612050502 65 297 0.0 0.0 0.00 0.00 0.00 62 1016.0
20240612050002 65 296 0.0 0.0 0.00 0.00 0.00 62 1016.0
20240612045502 65 297 0.0 0.0 0.00 0.00 0.00 62 1016.0
20240612045003 65 297 0.0 0.0 0.00 0.00 0.00 61 1016.0
20240612044502 65 297 0.0 0.0 0.00 0.00 0.00 62 1016.0
20240612044002 65 297 0.0 0.0 0.00 0.00 0.00 62 1016.0
20240612043003 65 297 0.0 0.0 0.00 0.00 0.00 62 1015.9
20240612042503 65 297 0.0 0.0 0.00 0.00 0.00 62 1015.9
20240612042003 65 297 0.0 0.0 0.00 0.00 0.00 61 1016.0
20240612041502 65 297 0.0 0.0 0.00 0.00 0.00 61 1015.9
20240612041003 66 296 0.0 0.0 0.00 0.00 0.00 62 1015.9
20240612040503 66 296 0.0 0.0 0.00 0.00 0.00 61 1015.9
20240612040002 66 296 0.0 0.0 0.00 0.00 0.00 61 1015.9
20240612035502 66 296 0.0 0.0 0.00 0.00 0.00 60 1015.9
20240612035003 66 296 0.0 0.0 0.00 0.00 0.00 61 1015.8
20240612034503 66 296 0.0 0.0 0.00 0.00 0.00 60 1015.7
20240612033503 66 296 0.0 0.0 0.00 0.00 0.00 59 1015.6
20240612033003 67 296 0.0 0.0 0.00 0.00 0.00 59 1015.5
20240612032502 67 305 0.0 0.0 0.00 0.00 0.00 60 1015.4
20240612032002 67 288 0.0 1.0 0.00 0.00 0.00 61 1015.4
20240612031504 67 278 0.0 1.0 0.00 0.00 0.00 60 1015.4
20240612031003 67 261 0.0 0.0 0.00 0.00 0.00 60 1015.4
20240612030503 67 261 0.0 0.0 0.00 0.00 0.00 61 1015.4
20240612030002 67 261 0.0 0.0 0.00 0.00 0.00 61 1015.4
20240612025502 67 261 0.0 0.0 0.00 0.00 0.00 61 1015.4
20240612025003 67 261 0.0 0.0 0.00 0.00 0.00 60 1015.3
20240612024503 67 261 0.0 0.0 0.00 0.00 0.00 61 1015.3
20240612024003 67 261 0.0 0.0 0.00 0.00 0.00 61 1015.3
20240612023503 67 261 0.0 1.0 0.00 0.00 0.00 60 1015.2
20240612023003 67 286 0.0 2.0 0.00 0.00 0.00 61 1015.2
20240612022002 68 343 0.0 0.0 0.00 0.00 0.00 60 1015.2
20240612021503 68 335 0.0 0.0 0.00 0.00 0.00 60 1015.2
20240612021003 68 334 0.0 0.0 0.00 0.00 0.00 61 1015.2
20240612020503 68 327 0.0 0.0 0.00 0.00 0.00 60 1015.2
20240612020003 68 70 0.0 0.0 0.00 0.00 0.00 61 1015.2
20240612015502 68 70 0.0 0.0 0.00 0.00 0.00 61 1015.1
20240612015002 68 72 0.0 0.0 0.00 0.00 0.00 61 1015.0
20240612014003 68 72 0.0 0.0 0.00 0.00 0.00 61 1014.9
20240612013503 68 72 0.0 0.0 0.00 0.00 0.00 60 1014.9
20240612013002 68 72 0.0 0.0 0.00 0.00 0.00 61 1014.8
20240612012502 69 72 0.0 0.0 0.00 0.00 0.00 61 1014.7
20240612012003 69 72 0.0 0.0 0.00 0.00 0.00 60 1014.7
20240612011503 69 73 0.0 0.0 0.00 0.00 0.00 60 1014.6
20240612011003 69 71 0.0 0.0 0.00 0.00 0.00 60 1014.6
20240612010503 69 83 0.0 0.0 0.00 0.00 0.00 60 1014.5
20240612010004 69 83 0.0 0.0 0.00 0.00 0.00 60 1014.4
20240612005502 69 82 0.0 0.0 0.00 0.00 0.00 60 1014.4
20240612005002 69 79 0.0 0.0 0.00 0.00 0.00 60 1014.3
20240612004503 69 79 0.0 0.0 0.00 0.00 0.00 60 1014.3
20240612004003 69 8 0.0 0.0 0.00 0.00 0.00 59 1014.2
20240612003503 69 330 0.0 0.0 0.00 0.00 0.00 60 1014.2
20240612002503 69 271 0.0 0.0 0.00 0.00 0.00 60 1014.2
20240612002003 69 271 0.0 0.0 0.00 0.00 0.00 59 1014.2
20240612001003 69 331 0.0 0.0 0.00 0.00 0.00 57 1014.2
20240612000503 70 323 0.0 0.0 0.00 0.00 0.00 58 1014.1
20240611235502 70 323 0.0 0.0 0.00 0.00 0.00 57 1013.9
20240611235003 70 320 0.0 0.0 0.00 0.00 0.00 56 1013.8
20240611234503 70 192 0.0 0.0 0.00 0.00 0.00 56 1013.8
20240611234003 70 192 0.0 0.0 0.00 0.00 0.00 56 1013.7
20240611232003 71 192 0.0 0.0 0.00 0.00 0.00 54 1013.6
20240611231502 71 191 0.0 0.0 0.00 0.00 0.00 53 1013.5
20240611231003 71 191 0.0 0.0 0.00 0.00 0.00 52 1013.5
20240611225502 72 190 0.0 0.0 0.00 0.00 0.00 52 1013.5
20240611225003 72 192 0.0 0.0 0.00 0.00 0.00 52 1013.5
20240611224503 72 192 0.0 0.0 0.00 0.00 0.00 53 1013.5
20240611224003 72 192 0.0 0.0 0.00 0.00 0.00 53 1013.4
20240611223002 72 192 0.0 2.0 0.00 0.00 0.00 49 1013.3
20240611222503 72 192 0.0 1.0 0.00 0.00 0.00 48 1013.3
20240611221503 73 192 0.0 3.0 0.00 0.00 0.00 47 1013.1
20240611221003 73 192 0.0 0.0 0.00 0.00 0.00 51 1013.2
20240611220503 73 190 0.0 0.0 0.00 0.00 0.00 49 1013.1
20240611220002 72 193 0.0 0.0 0.00 0.00 0.00 50 1013.0
20240611215503 72 187 0.0 0.0 0.00 0.00 0.00 50 1013.1
20240611214503 72 343 0.0 0.0 0.00 0.00 0.00 50 1013.1
20240611214003 73 253 0.0 0.0 0.00 0.00 0.00 48 1013.1
20240611213503 73 183 0.0 0.0 0.00 0.00 0.00 50 1013.2
20240611212503 73 177 0.0 0.0 0.00 0.00 0.00 51 1013.1
20240611212003 73 196 0.0 0.0 0.00 0.00 0.00 48 1013.1
20240611211503 73 197 0.0 0.0 0.00 0.00 0.00 50 1013.2
20240611211002 73 197 0.0 0.0 0.00 0.00 0.00 49 1013.2
20240611205503 73 59 0.0 0.0 0.00 0.00 0.00 49 1013.3
20240611204502 74 22 0.0 0.0 0.00 0.00 0.00 49 1013.4
20240611203003 75 315 0.0 0.0 0.00 0.00 0.00 45 1013.4
20240611202502 75 289 0.0 0.0 0.00 0.00 0.00 44 1013.4
20240611202003 75 350 0.0 0.0 0.00 0.00 0.00 46 1013.3
20240611201503 75 355 0.0 0.0 0.00 0.00 0.00 45 1013.3
20240611201003 75 333 0.0 0.0 0.00 0.00 0.00 46 1013.3
20240611200503 75 239 0.0 0.0 0.00 0.00 0.00 45 1013.3
20240611200002 75 304 0.0 0.0 0.00 0.00 0.00 44 1013.3
20240611194503 76 8 1.0 3.0 0.00 0.00 0.00 46 1013.2
20240611194003 75 147 2.0 5.0 0.00 0.00 0.00 46 1013.3
20240611193502 75 343 0.0 3.0 0.00 0.00 0.00 45 1013.2
20240611193003 74 319 0.0 0.0 0.00 0.00 0.00 49 1013.2
20240611192503 73 319 0.0 1.0 0.00 0.00 0.00 48 1013.2
20240611192003 74 2 0.0 3.0 0.00 0.00 0.00 49 1013.2
20240611191003 74 22 1.0 3.0 0.00 0.00 0.00 46 1013.2
20240611190503 74 303 1.0 3.0 0.00 0.00 0.00 44 1013.2
20240611190003 75 315 1.0 3.0 0.00 0.00 0.00 45 1013.2
20240611184503 75 214 2.0 5.0 0.00 0.00 0.00 46 1013.3
20240611184003 75 25 2.0 5.0 0.00 0.00 0.00 46 1013.2
20240611183003 75 316 2.0 3.0 0.00 0.00 0.00 45 1013.3
20240611182503 74 273 1.0 3.0 0.00 0.00 0.00 46 1013.3
20240611182002 74 316 0.0 3.0 0.00 0.00 0.00 47 1013.2
20240611181503 74 241 1.0 2.0 0.00 0.00 0.00 49 1013.3
20240611181003 74 54 2.0 3.0 0.00 0.00 0.00 46 1013.4
20240611180003 74 219 0.0 0.0 0.00 0.00 0.00 48 1013.3
20240611175503 73 269 1.0 3.0 0.00 0.00 0.00 50 1013.3
20240611175003 73 349 0.0 3.0 0.00 0.00 0.00 47 1013.3
20240611174503 73 9 0.0 3.0 0.00 0.00 0.00 49 1013.3
20240611174003 73 18 0.0 0.0 0.00 0.00 0.00 46 1013.3
20240611173503 73 311 0.0 3.0 0.00 0.00 0.00 48 1013.3
20240611173003 73 312 0.0 2.0 0.00 0.00 0.00 48 1013.3
20240611172503 73 8 0.0 2.0 0.00 0.00 0.00 48 1013.3
20240611172003 74 18 1.0 3.0 0.00 0.00 0.00 47 1013.3
20240611170003 73 328 1.0 5.0 0.00 0.00 0.00 46 1013.5
20240611165004 72 4 1.0 3.0 0.00 0.00 0.00 50 1013.4
20240611164003 72 31 1.0 3.0 0.00 0.00 0.00 49 1013.5
20240611163504 72 217 0.0 5.0 0.00 0.00 0.00 49 1013.5
20240611163003 72 223 2.0 3.0 0.00 0.00 0.00 46 1013.4
20240611162502 72 7 1.0 3.0 0.00 0.00 0.00 48 1013.5
20240611162003 72 334 0.0 2.0 0.00 0.00 0.00 48 1013.5
20240611161503 72 163 1.0 3.0 0.00 0.00 0.00 49 1013.4
20240611161003 72 71 1.0 3.0 0.00 0.00 0.00 48 1013.4
20240611160503 72 335 1.0 3.0 0.00 0.00 0.00 50 1013.3
20240611155503 71 98 1.0 3.0 0.00 0.00 0.00 50 1013.5
20240611155003 71 73 2.0 3.0 0.00 0.00 0.00 50 1013.5
20240611154003 71 350 1.0 5.0 0.00 0.00 0.00 52 1013.7
20240611153503 71 326 0.0 3.0 0.00 0.00 0.00 51 1013.7
20240611153003 70 247 1.0 2.0 0.00 0.00 0.00 50 1013.7
20240611152503 70 131 2.0 3.0 0.00 0.00 0.00 52 1013.6
20240611152003 70 281 1.0 3.0 0.00 0.00 0.00 50 1013.6
20240611151503 70 349 0.0 3.0 0.00 0.00 0.00 53 1013.5
20240611151003 70 359 0.0 3.0 0.00 0.00 0.00 52 1013.6
20240611150503 69 325 0.0 2.0 0.00 0.00 0.00 52 1013.6
20240611150003 69 345 1.0 3.0 0.00 0.00 0.00 52 1013.7
20240611145503 69 332 1.0 3.0 0.00 0.00 0.00 53 1013.6
20240611145003 69 358 1.0 3.0 0.00 0.00 0.00 53 1013.6
20240611144503 69 23 2.0 3.0 0.00 0.00 0.00 52 1013.5
20240611144003 69 346 2.0 3.0 0.00 0.00 0.00 53 1013.5
20240611143004 69 269 1.0 3.0 0.00 0.00 0.00 52 1013.5